Location: Unspecified
(0.0000°N, 0.0000°E)
Time: 12:14:07
(UTC+02:00)

PROBA 2 - Pass Details

Date: 04 June 2022
Orbit: 704 x 725 km, 98.2° (Epoch: 30 June)

Event Time Altitude Azimuth Distance (km) Brightness Sun altitude
Rises 06:57:42 0° 139° (SE) 3,139 ? -14.0°
Reaches altitude 10° 07:00:39 10° 120° (ESE) 2,214 ? -13.3°
Maximum altitude 07:03:55 18° 78° (ENE) 1,724 ? -12.6°
Drops below altitude 10° 07:07:09 10° 35° (NE) 2,202 ? -11.8°
Sets 07:10:03 0° 17° (NNE) 3,116 ? -11.1°
